Location: Newark
(41.8500°S, 167.0500°W)
Time: 05:31:48
(UTC+00:00)

ISS - Visible Passes

Search period start: 27 January 2020 00:00
Search period end: 06 February 2020 00:00
Orbit: 416 x 423 km, 51.6° (Epoch: 27 January)

Date Brightness Start Highest point End Pass type
(mag) Time Alt. Az. Time Alt. Az. Time Alt. Az.
27 Jan -1.5 14:16:28 14° NNE 14:17:24 16° NE 14:19:34 10° E visible
28 Jan -3.7 15:03:52 17° NW 15:06:20 78° NE 15:09:45 10° ESE visible
29 Jan -3.2 14:18:14 39° N 14:18:51 45° NE 14:22:08 10° ESE visible
30 Jan -1.7 13:32:33 22° ENE 13:32:33 22° ENE 13:34:20 10° ESE visible
30 Jan -2.8 15:05:30 14° W 15:08:06 42° SSW 15:11:23 10° SE visible
31 Jan -3.5 14:19:45 48° W 14:20:29 64° SSW 14:23:53 10° SE visible
01 Feb -2.5 13:33:58 41° ESE 13:33:58 41° ESE 13:36:19 10° ESE visible
01 Feb -1.8 15:07:13 10° WSW 15:10:02 23° SSW 15:12:52 10° SE visible
02 Feb -0.8 12:48:08 14° ESE 12:48:08 14° ESE 12:48:40 10° ESE visible
02 Feb -2.2 14:21:05 23° WSW 14:22:18 30° SSW 14:25:22 10° SE visible
03 Feb -2.4 13:35:13 37° S 13:35:13 37° S 13:37:53 10° SE visible
03 Feb -1.2 15:09:44 10° SW 15:12:04 17° S 15:14:25 10° SE visible
04 Feb -0.9 12:49:20 18° SE 12:49:20 18° SE 12:50:20 10° SE visible
04 Feb -1.4 14:22:17 13° SW 14:24:15 19° SSW 14:26:49 10° SE visible
05 Feb -1.7 13:36:23 23° SSW 13:36:26 23° SSW 13:39:16 10° SE visible
05 Feb -0.9 15:11:57 10° SW 15:14:09 16° S 15:16:21 10° SE visible
